Weather History for Paducah, KY

Change the Weather History Date:

Thursday, January 17, 2013

  Actual Average Record
Temperature  
Mean Temperature 35 °F 34 °F  
Max Temperature 46 °F 43 °F 68 °F (1952)
Min Temperature 24 °F 26 °F -14 °F (1982)
Degree Days  
Heating Degree Days 30 31  
Month to date heating degree days 473 524  
Since 1 July heating degree days 2000 2155  
Cooling Degree Days 0 0  
Month to date cooling degree days 0 0  
Year to date cooling degree days 0 0  
Moisture  
Dew Point 27 °F    
Average Humidity 76    
Maximum Humidity 92    
Minimum Humidity 60    
Precipitation  
Precipitation 0.00 in 0.12 in 2.33 in (1969)
Month to date precipitation 6.44 2.01  
Year to date precipitation 6.44 2.01  
Snow  
Snow 0.00 in 0.10 in 5.40 in (1994)
Month to date snowfall 0.3 1.5  
Since 1 July snowfall 6.0 3.8  
Snow Depth 0.00 in    
Sea Level Pressure  
Sea Level Pressure 30.29 in    
Wind  
Wind Speed 7 mph (NNW)    
Max Wind Speed 22 mph    
Max Gust Speed 28 mph    
Visibility 9 miles    
Events      
T = Trace of Precipitation, MM = Missing Value Source: NWS Daily Summary

Daily Weather History Graph

Daily Weather History Graph

Search for Another Location

Airport:

Trip Planner

Search our weather history database for the weather conditions in past years. The results will help you decide how hot, cold, wet, or windy it might be!

Date:

Astronomy

Jan. 17, 2013 Rise Set
Actual Time 7:06 AM CST 5:04 PM CST
Civil Twilight 6:38 AM CST 5:32 PM CST
Nautical Twilight 6:06 AM CST 6:04 PM CST
Astronomical Twilight 5:35 AM CST 6:35 PM CST
Moon 10:23 AM CST (1/17) 11:44 PM CST (1/17)
Length of Visible Light 10h 53m
Length of Day
9h 57m
Waxing Crescent, 38% of the Moon is Illuminated
Jan 17
Waxing Crescent
Jan 18
First Quarter
Jan 26
Full
Feb 3
Last Quarter
Feb 10
New

Hourly Weather History & Observations

Time (CST) Temp. Windchill Dew Point Humidity Pressure Visibility Wind Dir Wind Speed Gust Speed Precip Events Conditions
12:53 AM 28.9 °F - 26.1 °F 89% 30.17 in 6.0 mi Calm Calm - N/A   Clear
1:53 AM 27.0 °F - 25.0 °F 92% 30.15 in 4.0 mi Calm Calm - N/A   Clear
2:53 AM 25.0 °F - 23.0 °F 92% 30.16 in 3.0 mi Calm Calm - N/A   Clear
3:53 AM 26.1 °F 20.5 °F 23.0 °F 88% 30.16 in 7.0 mi NW 4.6 mph - N/A   Scattered Clouds
4:53 AM 27.0 °F 20.5 °F 23.0 °F 85% 30.12 in 9.0 mi North 5.8 mph - N/A   Clear
5:53 AM 27.0 °F - 21.9 °F 81% 30.17 in 10.0 mi Calm Calm - N/A   Clear
6:53 AM 25.0 °F - 21.9 °F 88% 30.21 in 10.0 mi Calm Calm - N/A   Clear
7:53 AM 25.0 °F - 21.9 °F 88% 30.22 in 7.0 mi Calm Calm - N/A   Partly Cloudy
8:53 AM 33.1 °F 28.7 °F 27.0 °F 78% 30.23 in 9.0 mi North 4.6 mph - N/A   Overcast
9:53 AM 37.9 °F 30.9 °F 28.0 °F 68% 30.25 in 10.0 mi North 10.4 mph - N/A   Clear
10:53 AM 42.1 °F 34.5 °F 30.0 °F 62% 30.25 in 10.0 mi North 15.0 mph - N/A   Clear
11:53 AM 45.0 °F 39.7 °F 32.0 °F 60% 30.22 in 10.0 mi North 10.4 mph - N/A   Clear
12:53 PM 46.0 °F 39.6 °F 33.1 °F 61% 30.21 in 10.0 mi NNW 15.0 mph 23.0 mph N/A   Clear
1:53 PM 44.1 °F 36.2 °F 33.1 °F 65% 30.23 in 9.0 mi North 18.4 mph 26.5 mph N/A   Mostly Cloudy
2:04 PM 44.6 °F 37.2 °F 33.8 °F 66% 30.23 in 9.0 mi NNW 17.3 mph 26.5 mph N/A   Overcast
2:53 PM 43.0 °F 36.0 °F 34.0 °F 71% 30.27 in 8.0 mi NNW 13.8 mph - N/A   Overcast
3:20 PM 42.8 °F 35.4 °F 33.8 °F 70% 30.28 in 10.0 mi NNW 15.0 mph 26.5 mph N/A   Scattered Clouds
3:53 PM 41.0 °F 33.5 °F 30.9 °F 67% 30.31 in 10.0 mi NNW 13.8 mph - N/A   Scattered Clouds
4:53 PM 37.9 °F 30.5 °F 28.0 °F 68% 30.35 in 10.0 mi NNW 11.5 mph - N/A   Clear
5:53 PM 35.1 °F 31.0 °F 27.0 °F 72% 30.40 in 10.0 mi NNW 4.6 mph - N/A   Clear
6:53 PM 35.1 °F 27.9 °F 27.0 °F 72% 30.43 in 10.0 mi NNW 9.2 mph - N/A   Clear
7:53 PM 34.0 °F 26.6 °F 26.1 °F 73% 30.45 in 10.0 mi North 9.2 mph - N/A   Clear
8:53 PM 32.0 °F 26.4 °F 24.1 °F 73% 30.49 in 10.0 mi North 5.8 mph - N/A   Clear
9:53 PM 30.9 °F 24.3 °F 23.0 °F 72% 30.48 in 10.0 mi North 6.9 mph - N/A   Clear
10:53 PM 30.9 °F 27.5 °F 23.0 °F 72% 30.49 in 10.0 mi North 3.5 mph - N/A   Clear
11:53 PM 28.0 °F 20.8 °F 21.9 °F 78% 30.51 in 10.0 mi North 6.9 mph - N/A   Clear